Tracking 33485 objects as of 15-Mar-2026
HD Live streaming from Space Station
objects crossing your sky now

STARLINK-35403

Track STARLINK-35403 now!
10-day predictions
STARLINK-35403 is classified as:


NORAD ID: 66081
Int'l Code: 2025-235Z
Perigee: 481.6 km
Apogee: 482.9 km
Inclination: 53.2 °
Period: 94.1 minutes
Semi major axis: 6853 km
RCS: Unknown
Launch date: October 19, 2025
Source: United States (US)
Launch site: AIR FORCE EASTERN TEST RANGE (AFETR)
Your satellite tracking list
Your tracking list is empty




NASA's NSSDC Master Catalog

Two Line Element Set (TLE):
1 66081U 25235Z   26073.70464842  .00037306  00000-0  12642-2 0  9997
2 66081  53.1566 221.6592 0000979  67.5322 292.5782 15.30231350 23694
Source of the keplerian elements: AFSPC